Location: *
(51.5000°N, 0.1100°W)
Time: 01:56:38
(UTC+00:00)

MSX - Pass Details

Date: 11 August 2024
Orbit: 895 x 904 km, 99.0° (Epoch: 09 September)

Event Time Altitude Azimuth Distance (km) Brightness Sun altitude
Rises 00:22:44 0° 27° (NNE) 3,544 8.1 -23.2°
Reaches altitude 10° 00:26:08 10° 47° (NE) 2,597 6.9 -23.2°
Maximum altitude 00:29:46 17° 86° (E) 2,135 5.9 -23.1°
Enters shadow 00:32:34 12° 118° (ESE) 2,414 5.9 -23.1°
